Regional Weather Roundup
Issued by NWS

Home | Current Version | Previous Version | Graphics & Text | Print | Product List | Glossary On
Versions: 1 2 3 4 5 6 7 8 9 10 11 12 13 14 15 16 17 18 19 20 21 22 23 24 25 26 27 28 29 30 31 32 33 34 35 36 37 38 39 40 41 42 43 44 45 46 47 48 49 50
190
ASUS44 KMEG 170410
RWRTN
TENNESSEE HOURLY STATE WEATHER ROUNDUP
NATIONAL WEATHER SERVICE MEMPHIS TN
1000 PM CST SAT DEC 16 2017

TNZ002-004-019-021-049-052-054-088>092-170500-
WEST TENNESSEE

CITY           SKY/WX    TMP DP  RH WIND       PRES   REMARKS
MEMPHIS INTL   CLOUDY    48  31  51 SE6       30.19F
NWS MEMPHIS      N/A     47 N/A N/A MISG        N/A
JACKSON        MOCLDY    46  31  55 S8        30.22R
DYERSBURG      CLOUDY    44  30  57 CALM      30.20
SOMERVILLE     MOCLDY    46  30  53 S7        30.18F
COVINGTON      CLEAR     45  30  57 S6        30.19F
UNION CITY     CLEAR     43  30  61 S9        30.19R
BOLIVAR        CLEAR     45  30  57 SE5       30.19F
PARIS          PTCLDY    43  30  61 S8        30.19R
HUNTINGDON     CLEAR     46  30  53 S8        30.19S
LEXINGTON      CLEAR     43  30  61 S6        30.22S
SELMER         PTCLDY    45  30  57 S5        30.22S
SAVANNAH       CLEAR     36  32  87 CALM      30.23S
$$

TNZ008-025-027-028-033-062-065-066-170500-
NORTH MIDDLE TENNESSEE

CITY           SKY/WX    TMP DP  RH WIND       PRES   REMARKS
NASHVILLE      CLOUDY    42  30  62 SE5       30.23S
PORTLAND         N/A     41  30  65 S7        30.21R
CLARKSVILLE    CLOUDY    42  27  55 S3        30.20R
SMYRNA         PTCLDY    41  30  65 S5        30.25S
COOKEVILLE     CLEAR     32  28  86 S5        30.24R WCI  27
GALLATIN       CLEAR     41  30  65 CALM      30.25S
CROSSVILLE     CLOUDY    36  27  69 S5        30.23S WCI  32
$$

TNZ061-075-076-078-094-096-097-170500-
SOUTH MIDDLE TENNESSEE

CITY           SKY/WX    TMP DP  RH WIND       PRES   REMARKS
FAYETTEVILLE   CLEAR     39  28  65 S7        30.25R WCI  34
TULLAHOMA      CLEAR     39  28  65 SE5       30.24S
WINCHESTER     CLEAR     36  27  69 CALM      30.26S
MCMINNVILLE    CLEAR     34  28  80 CALM      30.24S
COLUMBIA       CLEAR     43  28  56 S7        30.22S
SHELBYVILLE    CLEAR     36  28  75 S5        30.25S WCI  32
$$

TNZ017-018-042-046-047-170500-
NORTHEAST TENNESSEE

CITY           SKY/WX    TMP DP  RH WIND       PRES   REMARKS
TRI CITIES     CLOUDY    26  24  92 CALM      30.27S
ELIZABETHTON   CLEAR     28  25  86 NE3       30.29S
$$

TNZ012-013-036-069-073-074-170500-
CENTRAL EAST TENNESSEE

CITY           SKY/WX    TMP DP  RH WIND       PRES   REMARKS
KNOXVILLE      CLOUDY    35  30  82 CALM      30.26S
OAK RIDGE      PTCLDY    34  29  82 CALM      30.29R
DOWNTOWN KNOXV CLEAR     32  30  93 CALM      30.28S
GATLINBURG     CLEAR     28  27  93 CALM      30.28R
MORRISTOWN     CLEAR     34  27  75 CALM      30.26R
JACKSBORO      CLEAR     30  28  93 CALM      30.29R
$$

TNZ083-085-099-170500-
SOUTHEAST TENNESSEE

CITY           SKY/WX    TMP DP  RH WIND       PRES   REMARKS
CHATTANOOGA    CLOUDY    33  28  81 CALM      30.30R
DAYTON         CLOUDY    32  32 100 CALM      30.28R
$$

SKY/WX REPORTED AS FAIR MEANS FEW OR NO CLOUDS BELOW
12 THOUSAND FEET.





USA.gov is the U.S. government's official web portal to all federal, state and local government web resources and services.